{"data":{"norad_id":68013,"epoch":"2026-05-24T14:21:00.237888Z","epoch_age_seconds":103582,"freshness":"FRESH","line1":"1 68013U 26039AD  26144.59791942  .00014205  00000+0  52464-3 0  9996","line2":"2 68013  43.0012 340.1585 0001260 254.7812 105.2900 15.27585030 13315","mean_motion":15.2758503,"eccentricity":0.000126,"inclination_deg":43.0012,"raan_deg":340.1585,"arg_perigee_deg":254.7812,"mean_anomaly_deg":105.29,"bstar":0.00052464,"rev_number":1331,"period_min":94.266438314075,"perigee_km":482.16952690111,"apogee_km":483.89854200179,"semimajor_km":6861.1710344514,"source":"CELESTRAK","updated_at":"2026-05-25T13:38:21.803548Z"}}